FW8892 Weather Reports


Display with metric or nautical units.
time (UTC)temp
F
wind
direction
speed
MPH
gust
MPH
rain 1hr
in
rain 24hr
in
rain mn
in
humidity
%
barometer
mb
20260905234550 93 0 0.0 1.0 0.00 0.00 0.00 59 1011.3
20260905234029 93 0 0.0 1.0 0.00 0.00 0.00 59 1011.4
20260905233532 93 235 0.0 1.0 0.00 0.00 0.00 58 1011.4
20260905233109 94 0 0.0 2.0 0.00 0.00 0.00 57 1011.3
20260905232528 94 0 0.0 3.0 0.00 0.00 0.00 56 1011.4
20260905232029 94 0 0.0 4.0 0.00 0.00 0.00 55 1011.2
20260905231559 95 223 0.0 4.0 0.00 0.00 0.00 55 1011.2
20260905231034 95 247 0.0 4.0 0.00 0.00 0.00 55 1011.3
20260905230529 95 238 1.0 4.0 0.00 0.00 0.00 54 1011.3
20260905230057 95 233 1.0 4.0 0.00 0.00 0.00 54 1011.3
20260905225528 95 239 0.0 4.0 0.00 0.00 0.00 54 1011.3
20260905225029 96 248 1.0 4.0 0.00 0.00 0.00 53 1011.3
20260905224548 96 242 0.0 4.0 0.00 0.00 0.00 54 1011.2
20260905224028 96 194 1.0 4.0 0.00 0.00 0.00 53 1011.3
20260905223533 96 289 0.0 4.0 0.00 0.00 0.00 53 1011.2
20260905223101 96 252 1.0 4.0 0.00 0.00 0.00 52 1011.2
20260905222529 97 227 1.0 4.0 0.00 0.00 0.00 53 1011.2
20260905222029 97 258 1.0 4.0 0.00 0.00 0.00 52 1011.3
20260905221557 97 218 1.0 3.0 0.00 0.00 0.00 52 1011.3
20260905221029 97 296 0.0 3.0 0.00 0.00 0.00 52 1011.3
20260905220529 97 219 0.0 3.0 0.00 0.00 0.00 52 1011.3
20260905220058 98 263 1.0 3.0 0.00 0.00 0.00 51 1011.3
20260905215529 98 232 0.0 4.0 0.00 0.00 0.00 51 1011.3
20260905215028 98 282 0.0 4.0 0.00 0.00 0.00 50 1011.3
20260905214553 98 243 1.0 5.0 0.00 0.00 0.00 49 1011.3
20260905214030 99 0 1.0 5.0 0.00 0.00 0.00 50 1011.3
20260905213528 99 235 2.0 5.0 0.00 0.00 0.00 50 1011.3
20260905213059 99 0 1.0 4.0 0.00 0.00 0.00 48 1011.4
20260905212529 99 13 2.0 4.0 0.00 0.00 0.00 48 1011.4
20260905212032 100 344 1.0 2.0 0.00 0.00 0.00 48 1011.4
20260905211553 100 297 0.0 3.0 0.00 0.00 0.00 47 1011.4
20260905211028 100 0 0.0 4.0 0.00 0.00 0.00 46 1011.4
20260905210528 100 264 1.0 4.0 0.00 0.00 0.00 49 1011.4
20260905210055 100 22 0.0 3.0 0.00 0.00 0.00 46 1011.6
20260905205556 100 62 0.0 3.0 0.00 0.00 0.00 48 1011.5
20260905205030 100 295 1.0 4.0 0.00 0.00 0.00 46 1011.7
20260905204955 100 278 1.0 4.0 0.00 0.00 0.00 48 1011.7
20260905204029 100 190 0.0 3.0 0.00 0.00 0.00 47 1011.6
20260905203529 100 319 1.0 3.0 0.00 0.00 0.00 47 1011.7
20260905203053 100 281 2.0 5.0 0.00 0.00 0.00 49 1011.9
20260905202528 100 261 1.0 5.0 0.00 0.00 0.00 46 1011.9
20260905202032 101 319 1.0 6.0 0.00 0.00 0.00 48 1012.0
20260905201559 101 287 1.0 6.0 0.00 0.00 0.00 48 1012.2
20260905201028 101 350 3.0 6.0 0.00 0.00 0.00 48 1012.3
20260905200532 101 194 1.0 5.0 0.00 0.00 0.00 48 1012.3
20260905195530 101 310 0.0 5.0 0.00 0.00 0.00 51 1012.4
20260905195029 100 0 2.0 5.0 0.00 0.00 0.00 48 1012.5
20260905194556 100 209 2.0 5.0 0.00 0.00 0.00 48 1012.5
20260905194029 99 198 1.0 5.0 0.00 0.00 0.00 52 1012.8
20260905193532 98 286 1.0 4.0 0.00 0.00 0.00 53 1012.9
20260905193050 98 290 1.0 4.0 0.00 0.00 0.00 55 1012.9
20260905192531 97 234 1.0 4.0 0.00 0.00 0.00 54 1012.9
20260905192031 96 338 1.0 3.0 0.00 0.00 0.00 53 1012.9
20260905191549 96 339 1.0 5.0 0.00 0.00 0.00 54 1013.0
20260905191031 96 259 1.0 5.0 0.00 0.00 0.00 53 1013.0
20260905190529 97 13 3.0 8.0 0.00 0.00 0.00 52 1012.9
20260905190059 97 59 4.0 8.0 0.00 0.00 0.00 51 1013.0
20260905185530 98 82 2.0 5.0 0.00 0.00 0.00 54 1013.3
20260905185029 98 67 2.0 5.0 0.00 0.00 0.00 51 1013.3
20260905184553 98 0 1.0 4.0 0.00 0.00 0.00 50 1013.4
20260905184029 98 107 1.0 6.0 0.00 0.00 0.00 51 1013.4
20260905183532 98 86 1.0 6.0 0.00 0.00 0.00 50 1013.6
20260905183106 98 53 2.0 6.0 0.00 0.00 0.00 51 1013.6
20260905182529 98 276 1.0 6.0 0.00 0.00 0.00 52 1013.7
20260905182030 98 19 3.0 6.0 0.00 0.00 0.00 50 1013.8
20260905181558 99 355 1.0 5.0 0.00 0.00 0.00 51 1013.8
20260905181031 99 55 2.0 5.0 0.00 0.00 0.00 51 1013.9
20260905180529 99 325 2.0 4.0 0.00 0.00 0.00 52 1014.0
20260905180057 99 355 2.0 4.0 0.00 0.00 0.00 51 1013.9
20260905175530 99 351 2.0 7.0 0.00 0.00 0.00 50 1014.0
20260905175028 99 240 1.0 7.0 0.00 0.00 0.00 51 1014.0
20260905174549 99 190 1.0 5.0 0.00 0.00 0.00 54 1014.1
20260905174035 99 34 1.0 5.0 0.00 0.00 0.00 52 1014.1
20260905173528 98 165 1.0 4.0 0.00 0.00 0.00 52 1014.2
20260905173059 98 299 1.0 4.0 0.00 0.00 0.00 52 1014.3
20260905172530 98 0 1.0 8.0 0.00 0.00 0.00 53 1014.3
20260905172030 97 15 1.0 8.0 0.00 0.00 0.00 52 1014.3
20260905171559 97 349 2.0 4.0 0.00 0.00 0.00 52 1014.2
20260905171029 97 0 1.0 4.0 0.00 0.00 0.00 54 1014.4
20260905170528 98 312 1.0 4.0 0.00 0.00 0.00 56 1014.4
20260905170100 98 45 1.0 4.0 0.00 0.00 0.00 56 1014.5
20260905165528 98 22 1.0 3.0 0.00 0.00 0.00 54 1014.5
20260905165030 98 269 1.0 3.0 0.00 0.00 0.00 58 1014.5
20260905164549 97 0 1.0 5.0 0.00 0.00 0.00 57 1014.5
20260905164029 97 308 1.0 5.0 0.00 0.00 0.00 59 1014.6
20260905163528 96 219 1.0 4.0 0.00 0.00 0.00 58 1014.7
20260905163237 96 249 0.0 6.0 0.00 0.00 0.00 59 1014.7
20260905162529 95 5 2.0 6.0 0.00 0.00 0.00 58 1014.8
20260905162030 95 355 3.0 7.0 0.00 0.00 0.00 57 1014.9
20260905161600 95 343 2.0 7.0 0.00 0.00 0.00 58 1014.9
20260905161030 96 5 1.0 5.0 0.00 0.00 0.00 61 1014.9
20260905160529 96 159 1.0 5.0 0.00 0.00 0.00 59 1014.9
20260905160058 96 82 1.0 5.0 0.00 0.00 0.00 60 1014.9
20260905155532 95 0 1.0 5.0 0.00 0.00 0.00 61 1014.9
20260905155029 95 325 1.0 3.0 0.00 0.00 0.00 62 1014.9
20260905154550 95 290 1.0 4.0 0.00 0.00 0.00 65 1015.0
20260905154030 94 0 1.0 4.0 0.00 0.00 0.00 62 1015.1
20260905153528 93 313 1.0 4.0 0.00 0.00 0.00 63 1015.1
20260905153110 93 346 2.0 5.0 0.00 0.00 0.00 63 1015.1
20260905152528 93 5 1.0 5.0 0.00 0.00 0.00 65 1015.2
20260905152033 93 279 3.0 5.0 0.00 0.00 0.00 63 1015.2
20260905151549 92 49 1.0 4.0 0.00 0.00 0.00 65 1015.1
20260905151030 92 305 1.0 4.0 0.00 0.00 0.00 68 1015.3
20260905150528 91 313 1.0 4.0 0.00 0.00 0.00 67 1015.3
20260905150058 91 318 1.0 4.0 0.00 0.00 0.00 69 1015.3
20260905145530 90 317 1.0 5.0 0.00 0.00 0.00 70 1015.3
20260905145030 90 13 1.0 5.0 0.00 0.00 0.00 71 1015.3
20260905144555 89 340 1.0 4.0 0.00 0.00 0.00 72 1015.4
20260905144029 89 0 0.0 4.0 0.00 0.00 0.00 74 1015.3
20260905143529 88 346 1.0 4.0 0.00 0.00 0.00 72 1015.3
20260905143058 88 360 1.0 3.0 0.00 0.00 0.00 74 1015.3
20260905142528 87 348 1.0 3.0 0.00 0.00 0.00 76 1015.4
20260905142029 86 0 0.0 0.0 0.00 0.00 0.00 78 1015.4
20260905141602 85 0 0.0 0.0 0.00 0.00 0.00 80 1015.4
20260905141029 84 0 0.0 0.0 0.00 0.00 0.00 84 1015.4
20260905140530 82 0 0.0 0.0 0.00 0.00 0.00 86 1015.4
20260905140106 81 0 0.0 0.0 0.00 0.00 0.00 87 1015.4
20260905135529 80 0 0.0 0.0 0.00 0.00 0.00 89 1015.4
20260905135030 79 0 0.0 0.0 0.00 0.00 0.00 91 1015.4
20260905134552 78 0 0.0 0.0 0.00 0.00 0.00 92 1015.5
20260905134030 77 0 0.0 0.0 0.00 0.00 0.00 92 1015.5
20260905133529 77 0 0.0 0.0 0.00 0.00 0.00 92 1015.4
20260905133049 77 0 0.0 0.0 0.00 0.00 0.00 93 1015.6
20260905132529 76 0 0.0 3.0 0.00 0.00 0.00 93 1015.5
20260905132029 76 0 0.0 3.0 0.00 0.00 0.00 94 1015.5
20260905131614 76 167 0.0 2.0 0.00 0.00 0.00 94 1015.4
20260905131029 75 139 0.0 2.0 0.00 0.00 0.00 95 1015.4
20260905130530 75 139 0.0 2.0 0.00 0.00 0.00 95 1015.4
20260905130055 75 173 1.0 2.0 0.00 0.00 0.00 96 1015.4
20260905125531 75 173 0.0 2.0 0.00 0.00 0.00 96 1015.3
20260905125029 74 173 0.0 2.0 0.00 0.00 0.00 96 1015.3
20260905124557 74 0 0.0 0.0 0.00 0.00 0.00 97 1015.4
20260905124034 74 0 0.0 0.0 0.00 0.00 0.00 97 1015.4
20260905123530 73 0 0.0 0.0 0.00 0.00 0.00 97 1015.3
20260905123053 73 0 0.0 0.0 0.00 0.00 0.00 97 1015.3
20260905122532 73 0 0.0 0.0 0.00 0.00 0.00 97 1015.2
20260905122029 73 0 0.0 0.0 0.00 0.00 0.00 97 1015.2
20260905121557 73 0 0.0 0.0 0.00 0.00 0.00 97 1015.2
20260905121029 73 0 0.0 0.0 0.00 0.00 0.00 97 1015.2
20260905120530 72 0 0.0 0.0 0.00 0.00 0.00 97 1015.2
20260905120059 72 0 0.0 0.0 0.00 0.00 0.00 97 1015.1
20260905115529 72 0 0.0 0.0 0.00 0.00 0.00 97 1015.1
20260905115031 72 0 0.0 0.0 0.00 0.00 0.00 97 1015.0
20260905114554 72 0 0.0 0.0 0.00 0.00 0.00 96 1015.0
20260905114032 72 0 0.0 0.0 0.00 0.00 0.00 96 1014.9
20260905113530 72 0 0.0 0.0 0.00 0.00 0.00 96 1014.8
20260905113049 72 0 0.0 0.0 0.00 0.00 0.00 96 1014.6
20260905112531 72 0 0.0 0.0 0.00 0.00 0.00 96 1014.6
20260905112031 72 0 0.0 0.0 0.00 0.00 0.00 96 1014.6
20260905111600 72 0 0.0 0.0 0.00 0.00 0.00 96 1014.5
20260905111033 72 0 0.0 0.0 0.00 0.00 0.00 96 1014.4
20260905110529 72 0 0.0 0.0 0.00 0.00 0.00 96 1014.4
20260905110059 72 0 0.0 0.0 0.00 0.00 0.00 96 1014.4
20260905105529 72 0 0.0 0.0 0.00 0.00 0.00 96 1014.3
20260905105028 72 0 0.0 0.0 0.00 0.00 0.00 96 1014.2
20260905104555 72 0 0.0 0.0 0.00 0.00 0.00 96 1014.3
20260905104029 72 0 0.0 0.0 0.00 0.00 0.00 95 1014.3
20260905103533 72 0 0.0 0.0 0.00 0.00 0.00 95 1014.2
20260905103058 72 0 0.0 0.0 0.00 0.00 0.00 95 1014.2
20260905102529 72 0 0.0 0.0 0.00 0.00 0.00 95 1014.1
20260905102028 72 0 0.0 0.0 0.00 0.00 0.00 95 1014.2
20260905101553 72 0 0.0 0.0 0.00 0.00 0.00 95 1014.1
20260905101027 72 0 0.0 0.0 0.00 0.00 0.00 95 1014.1
20260905100529 72 0 0.0 0.0 0.00 0.00 0.00 95 1014.1
20260905100108 72 0 0.0 0.0 0.00 0.00 0.00 95 1014.1
20260905095530 72 0 0.0 0.0 0.00 0.00 0.00 95 1014.1
20260905095028 72 0 0.0 0.0 0.00 0.00 0.00 94 1013.9
20260905094546 72 0 0.0 0.0 0.00 0.00 0.00 94 1014.0
20260905094028 72 0 0.0 0.0 0.00 0.00 0.00 94 1013.9
20260905093529 72 0 0.0 0.0 0.00 0.00 0.00 95 1013.9
20260905093046 72 0 0.0 0.0 0.00 0.00 0.00 95 1013.9
20260905092528 73 0 0.0 0.0 0.00 0.00 0.00 95 1013.8
20260905092029 73 0 0.0 0.0 0.00 0.00 0.00 94 1013.8
20260905091557 73 0 0.0 0.0 0.00 0.00 0.00 94 1013.7
20260905091028 73 0 0.0 0.0 0.00 0.00 0.00 94 1013.8
20260905090525 73 0 0.0 0.0 0.00 0.00 0.00 94 1013.9
20260905090106 73 0 0.0 0.0 0.00 0.00 0.00 94 1013.9
20260905085529 73 0 0.0 0.0 0.00 0.00 0.00 94 1013.8
20260905085028 73 0 0.0 0.0 0.00 0.00 0.00 94 1013.9
20260905084548 73 0 0.0 0.0 0.00 0.00 0.00 94 1014.0
20260905084035 73 0 0.0 0.0 0.00 0.00 0.00 94 1013.9
20260905083529 73 0 0.0 0.0 0.00 0.00 0.00 93 1013.9
20260905083057 73 0 0.0 0.0 0.00 0.00 0.00 93 1014.0
20260905082529 73 0 0.0 0.0 0.00 0.00 0.00 93 1013.9
20260905082030 73 0 0.0 0.0 0.00 0.00 0.00 93 1013.9
20260905081600 73 0 0.0 0.0 0.00 0.00 0.00 93 1014.0
20260905081028 73 0 0.0 0.0 0.00 0.00 0.00 93 1014.0
20260905080529 73 0 0.0 0.0 0.00 0.00 0.00 93 1013.9
20260905080054 73 0 0.0 0.0 0.00 0.00 0.00 92 1014.0
20260905075528 73 0 0.0 0.0 0.00 0.00 0.00 92 1013.9
20260905075028 73 0 0.0 0.0 0.00 0.00 0.00 92 1014.0
20260905074557 73 0 0.0 0.0 0.00 0.00 0.00 92 1014.0
20260905074029 73 0 0.0 0.0 0.00 0.00 0.00 92 1014.0
20260905073531 73 0 0.0 0.0 0.00 0.00 0.00 91 1014.1
20260905073048 73 0 0.0 0.0 0.00 0.00 0.00 91 1014.0
20260905072529 74 0 0.0 0.0 0.00 0.00 0.00 91 1014.2
20260905072029 74 0 0.0 0.0 0.00 0.00 0.00 91 1014.2
20260905071553 74 0 0.0 0.0 0.00 0.00 0.00 91 1014.2
20260905071029 74 0 0.0 0.0 0.00 0.00 0.00 91 1014.2
20260905070529 74 0 0.0 0.0 0.00 0.00 0.00 91 1014.2
20260905070059 74 0 0.0 0.0 0.00 0.00 0.00 91 1014.2
20260905065526 74 0 0.0 0.0 0.00 0.00 0.00 90 1014.3
20260905065034 74 0 0.0 0.0 0.00 0.00 0.00 90 1014.3
20260905064548 74 0 0.0 0.0 0.00 0.00 0.00 90 1014.2
20260905064035 74 0 0.0 0.0 0.00 0.00 0.00 89 1014.2
20260905063528 74 0 0.0 0.0 0.00 0.00 0.00 89 1014.4
20260905063055 74 0 0.0 0.0 0.00 0.00 0.00 89 1014.2
20260905062529 74 0 0.0 0.0 0.00 0.00 0.00 89 1014.4
20260905062030 75 0 0.0 0.0 0.00 0.00 0.00 89 1014.4
20260905061553 75 0 0.0 1.0 0.00 0.00 0.00 88 1014.4
20260905061029 75 0 0.0 1.0 0.00 0.00 0.00 88 1014.3
20260905060526 75 0 0.0 0.0 0.00 0.00 0.00 87 1014.4
20260905060052 75 0 0.0 0.0 0.00 0.00 0.00 88 1014.4
20260905055528 75 0 0.0 1.0 0.00 0.00 0.00 88 1014.4
20260905055029 75 0 0.0 1.0 0.00 0.00 0.00 88 1014.3
20260905054549 75 0 0.0 1.0 0.00 0.00 0.00 87 1014.2
20260905054029 75 0 0.0 0.0 0.00 0.00 0.00 87 1014.3
20260905053530 76 0 0.0 0.0 0.00 0.00 0.00 86 1014.2
20260905053056 76 0 0.0 0.0 0.00 0.00 0.00 86 1014.1
20260905052528 76 0 0.0 0.0 0.00 0.00 0.00 85 1014.2
20260905052028 76 0 0.0 0.0 0.00 0.00 0.00 85 1014.2
20260905051555 76 0 0.0 0.0 0.00 0.00 0.00 84 1014.3
20260905051028 77 0 0.0 1.0 0.00 0.00 0.00 84 1014.2
20260905050528 77 0 0.0 1.0 0.00 0.00 0.00 84 1014.1
20260905050057 77 0 0.0 0.0 0.00 0.00 0.00 84 1014.1
20260905045531 77 0 0.0 0.0 0.00 0.00 0.00 84 1014.2
20260905045029 77 0 0.0 1.0 0.00 0.00 0.00 84 1014.3
20260905044548 77 0 0.0 1.0 0.00 0.00 0.00 84 1014.5
20260905044028 77 0 0.0 1.0 0.00 0.00 0.00 84 1014.4
20260905043529 77 0 0.0 1.0 0.00 0.00 0.00 83 1014.5
20260905043054 77 0 0.0 1.0 0.00 0.00 0.00 83 1014.4
20260905042528 77 0 0.0 1.0 0.00 0.00 0.00 83 1014.5
20260905042029 77 0 0.0 1.0 0.00 0.00 0.00 83 1014.6
20260905041555 77 0 0.0 1.0 0.00 0.00 0.00 83 1014.5
20260905041029 77 0 0.0 2.0 0.00 0.00 0.00 84 1014.6
20260905040528 77 0 0.0 2.0 0.00 0.00 0.00 85 1014.5
20260905040054 77 0 0.0 0.0 0.00 0.00 0.00 86 1014.7
20260905035526 78 0 0.0 0.0 0.00 0.00 0.00 86 1014.7
20260905035029 78 0 0.0 0.0 0.00 0.00 0.00 86 1014.8
20260905034549 78 0 0.0 0.0 0.00 0.00 0.00 86 1014.8
20260905034029 78 0 0.0 0.0 0.00 0.00 0.00 86 1015.0
20260905033528 78 0 0.0 0.0 0.00 0.00 0.00 86 1015.0
20260905033046 78 0 0.0 0.0 0.00 0.00 0.00 86 1015.1
20260905032529 78 0 0.0 0.0 0.00 0.00 0.00 87 1015.0
20260905032028 78 0 0.0 0.0 0.00 0.00 0.00 87 1015.1
20260905031602 78 0 0.0 1.0 0.00 0.00 0.00 87 1015.1
20260905031029 78 0 0.0 1.0 0.00 0.00 0.00 87 1015.1
20260905030528 79 0 0.0 0.0 0.00 0.00 0.00 86 1015.0
20260905030049 79 0 0.0 0.0 0.00 0.00 0.00 86 1015.1
20260905025528 79 0 0.0 0.0 0.00 0.00 0.00 86 1015.0
20260905025028 79 0 0.0 2.0 0.00 0.00 0.00 86 1015.1
20260905024548 79 0 0.0 2.0 0.00 0.00 0.00 86 1015.0
20260905024028 79 0 0.0 4.0 0.00 0.00 0.00 85 1015.1
20260905023528 80 0 0.0 4.0 0.00 0.00 0.00 85 1015.0
20260905023055 80 162 1.0 4.0 0.00 0.00 0.00 85 1015.1
20260905022529 80 0 0.0 1.0 0.00 0.00 0.00 85 1015.0
20260905022029 80 0 0.0 1.0 0.00 0.00 0.00 85 1014.9
20260905021548 80 0 0.0 1.0 0.00 0.00 0.00 84 1015.0
20260905021027 81 0 0.0 1.0 0.00 0.00 0.00 84 1015.0
20260905020532 81 0 0.0 7.0 0.00 0.00 0.00 83 1015.1
20260905020057 81 0 0.0 7.0 0.00 0.00 0.00 83 1015.0
20260905015528 81 159 3.0 7.0 0.00 0.00 0.00 83 1015.0
20260905015029 81 144 0.0 2.0 0.00 0.00 0.00 81 1014.8
20260905014548 81 0 0.0 0.0 0.00 0.00 0.00 81 1014.7
20260905014029 82 0 0.0 0.0 0.00 0.00 0.00 81 1014.7
20260905013529 82 0 0.0 0.0 0.00 0.00 0.00 80 1014.7
20260905013048 82 0 0.0 0.0 0.00 0.00 0.00 80 1014.6
20260905012529 83 0 0.0 0.0 0.00 0.00 0.00 80 1014.6
20260905012029 83 0 0.0 0.0 0.00 0.00 0.00 79 1014.7
20260905011600 83 0 0.0 0.0 0.00 0.00 0.00 78 1014.6
20260905011028 84 0 0.0 0.0 0.00 0.00 0.00 77 1014.6
20260905010529 84 0 0.0 0.0 0.00 0.00 0.00 76 1014.6
20260905010105 84 0 0.0 2.0 0.00 0.00 0.00 76 1014.6
20260905005527 85 0 0.0 2.0 0.00 0.00 0.00 76 1014.6
20260905005029 85 144 0.0 2.0 0.00 0.00 0.00 75 1014.5
20260905004550 86 0 0.0 2.0 0.00 0.00 0.00 74 1014.5
20260905004033 86 0 0.0 2.0 0.00 0.00 0.00 74 1014.4
20260905003529 86 0 0.0 2.0 0.00 0.00 0.00 73 1014.6
20260905003100 87 144 1.0 3.0 0.00 0.00 0.00 73 1014.5
20260905002531 87 160 0.0 3.0 0.00 0.00 0.00 72 1014.5
20260905002029 88 147 1.0 3.0 0.00 0.00 0.00 71 1014.5
20260905001556 88 163 0.0 2.0 0.00 0.00 0.00 71 1014.6
20260905001028 88 182 1.0 2.0 0.00 0.00 0.00 70 1014.6
20260905000529 89 0 0.0 2.0 0.00 0.00 0.00 69 1014.6
20260904235526 90 182 0.0 4.0 0.00 0.00 0.00 68 1014.5
20260904235029 90 149 0.0 4.0 0.00 0.00 0.00 68 1014.6